Westfield, MA

6:33 PM EDT on April 28, 2017 (GMT -0400)
Barnes Municipal

Weather History for KBAF - August, 2013

Change the Weather History Date:

Saturday, August 17, 2013

  Actual Average Record
Temperature  
Mean Temperature 67 °F -  
Max Temperature 81 °F 80 °F 93 °F (2002)
Min Temperature 54 °F 57 °F 53 °F (2004)
Cooling Degree Days 2    
Growing Degree Days 17 (Base 50)    
Moisture  
Dew Point 56 °F    
Average Humidity 73    
Maximum Humidity 97    
Minimum Humidity 35    
Precipitation  
Precipitation 0.00 in - - ()
Sea Level Pressure  
Sea Level Pressure 30.26 in    
Wind  
Wind Speed 2 mph (North)    
Max Wind Speed 7 mph    
Max Gust Speed -    
Visibility 10 miles    
Events      
Averages and records for this station are not official NWS values.
T = Trace of Precipitation, MM = Missing Value Source: NWS Daily Summary

Daily Weather History Graph

Daily Weather History Graph

Search for Another Location

Airport or City:

Trip Planner

Search our weather history database for the weather conditions in past years. The results will help you decide how hot, cold, wet, or windy it might be!

Date:

Astronomy

Aug. 17, 2013 Rise Set
Actual Time 6:00 AM EDT 7:48 PM EDT
Civil Twilight 5:30 AM EDT 8:18 PM EDT
Nautical Twilight 4:54 AM EDT 8:54 PM EDT
Astronomical Twilight 4:14 AM EDT 9:33 PM EDT
Moon 5:02 PM EDT (8/17) 1:58 AM EDT (8/17)
Length of Visible Light 14h 47m
Length of Day
13h 47m
Waxing Gibbous, 84% of the Moon is Illuminated
Aug 17
Waxing Gibbous
Aug 20
Full
Aug 28
Last Quarter
Sep 5
New
Sep 12
First Quarter

Hourly Weather History & Observations

Time (EDT) Temp. Dew Point Humidity Pressure Visibility Wind Dir Wind Speed Gust Speed Precip Events Conditions
12:53 AM 55.9 °F 55.0 °F 97% 30.22 in 4.0 mi Calm Calm - N/A   Clear
1:53 AM 57.0 °F 55.0 °F 93% 30.23 in 8.0 mi Calm Calm - N/A   Clear
2:53 AM 55.0 °F 53.1 °F 93% 30.23 in 10.0 mi North 4.6 mph - N/A   Clear
3:53 AM 55.0 °F 53.1 °F 93% 30.24 in 10.0 mi North 4.6 mph - N/A   Clear
4:53 AM 54.0 °F 53.1 °F 97% 30.25 in 10.0 mi Calm Calm - N/A   Clear
5:53 AM 54.0 °F 52.0 °F 93% 30.26 in 10.0 mi North 4.6 mph - N/A   Clear
6:53 AM 54.0 °F 52.0 °F 93% 30.27 in 10.0 mi North 5.8 mph - N/A   Clear
7:53 AM 59.0 °F 55.0 °F 87% 30.28 in 10.0 mi North 6.9 mph - N/A   Clear
8:53 AM 64.0 °F 55.0 °F 73% 30.29 in 10.0 mi Calm Calm - N/A   Clear
9:53 AM 70.0 °F 57.0 °F 63% 30.28 in 10.0 mi Calm Calm - N/A   Clear
10:53 AM 73.0 °F 55.9 °F 55% 30.30 in 10.0 mi Variable 4.6 mph - N/A   Clear
11:53 AM 77.0 °F 57.0 °F 50% 30.28 in 10.0 mi North 4.6 mph - N/A   Clear
12:53 PM 78.1 °F 55.9 °F 46% 30.27 in 10.0 mi Calm Calm - N/A   Clear
1:53 PM 77.0 °F 55.9 °F 48% 30.26 in 10.0 mi East 4.6 mph - N/A   Clear
2:53 PM 80.1 °F 52.0 °F 38% 30.25 in 10.0 mi Calm Calm - N/A   Clear
3:53 PM 80.1 °F 50.0 °F 35% 30.23 in 10.0 mi Calm Calm - N/A   Clear
4:53 PM 79.0 °F 51.1 °F 38% 30.24 in 10.0 mi Calm Calm - N/A   Clear
5:53 PM 79.0 °F 52.0 °F 39% 30.24 in 10.0 mi Calm Calm - N/A   Clear
6:53 PM 73.0 °F 63.0 °F 71% 30.24 in 10.0 mi Calm Calm - N/A   Clear
7:53 PM 69.1 °F 63.0 °F 81% 30.25 in 10.0 mi Calm Calm - N/A   Clear
8:53 PM 66.0 °F 63.0 °F 90% 30.25 in 10.0 mi Calm Calm - N/A   Clear
9:53 PM 64.0 °F 61.0 °F 90% 30.26 in 10.0 mi Calm Calm - N/A   Clear
10:53 PM 62.1 °F 60.1 °F 93% 30.27 in 10.0 mi Calm Calm - N/A   Clear
11:53 PM 61.0 °F 59.0 °F 93% 30.27 in 9.0 mi Calm Calm - N/A   Clear